Location: Brunsen
(51.8651°N, 9.8610°E)
Time: 16:18:18
(UTC+00:00)

Nimbus 7 Rocket - Pass Details

Date: 23 May 2024
Orbit: 922 x 963 km, 99.4° (Epoch: 24 June)

Event Time Altitude Azimuth Distance (km) Brightness Sun altitude
Rises 00:24:18 0° 16° (NNE) 3,620 9.4 -16.0°
Reaches altitude 10° 00:26:44 10° 16° (NNE) 2,677 8.2 -15.9°
Maximum altitude 00:32:45 86° 289° (WNW) 962 4.4 -15.6°
Enters shadow 00:36:44 23° 201° (SSW) 1,918 5.4 -15.4°
